FW8733 Weather Reports


time (UTC)temp
C
wind
direction
speed
KPH
gust
KPH
rain 1hr
cm
rain 24hr
cm
rain mn
cm
humidity
%
barometer
mb
20260906113835 25 220 0.0 0.0 0.00 0.00 0.00 88 1015.9
20260906113334 25 220 0.0 0.0 0.00 0.00 0.00 88 1015.9
20260906112830 25 220 0.0 0.0 0.00 0.00 0.00 88 1015.8
20260906112326 25 220 0.0 0.0 0.00 0.00 0.00 88 1015.7
20260906111826 25 220 0.0 0.0 0.00 0.00 0.00 88 1015.6
20260906111320 25 220 0.0 0.0 0.00 0.00 0.00 88 1015.5
20260906110815 25 220 0.0 0.0 0.00 0.00 0.00 88 1015.7
20260906110311 25 220 0.0 0.0 0.00 0.00 0.00 88 1015.4
20260906105809 25 220 0.0 0.0 0.00 0.00 0.00 88 1015.4
20260906105306 25 220 0.0 0.0 0.00 0.00 0.00 89 1015.2
20260906104801 25 220 0.0 0.0 0.00 0.00 0.00 88 1015.5
20260906104259 25 220 0.0 0.0 0.00 0.00 0.00 87 1015.6
20260906103758 25 220 0.0 0.0 0.00 0.00 0.00 87 1015.4
20260906103257 25 220 0.0 0.0 0.00 0.00 0.00 87 1015.4
20260906102753 25 220 0.0 0.0 0.00 0.00 0.00 87 1015.4
20260906102252 25 220 0.0 0.0 0.00 0.00 0.00 88 1015.4
20260906101747 25 220 0.0 0.0 0.00 0.00 0.00 88 1015.5
20260906101242 25 220 0.0 0.0 0.00 0.00 0.00 87 1015.5
20260906100738 25 220 0.0 0.0 0.00 0.00 0.00 87 1015.5
20260906100237 25 220 0.0 0.0 0.00 0.00 0.00 87 1015.3
20260906095733 26 220 0.0 0.0 0.00 0.00 0.00 87 1015.4
20260906095228 26 220 0.0 0.0 0.00 0.00 0.00 86 1015.5
20260906094726 26 219 0.0 0.0 0.00 0.00 0.00 86 1015.6
20260906094216 26 219 0.0 0.0 0.00 0.00 0.00 86 1015.7
20260906093713 26 219 0.0 0.0 0.00 0.00 0.00 86 1015.5
20260906093208 26 219 0.0 0.0 0.00 0.00 0.00 86 1015.5
20260906092703 26 219 0.0 0.0 0.00 0.00 0.00 86 1015.4
20260906092202 26 220 0.0 0.0 0.00 0.00 0.00 86 1015.6
20260906091659 26 219 0.0 0.0 0.00 0.00 0.00 86 1015.6
20260906091155 26 221 0.0 0.0 0.00 0.00 0.00 86 1015.3
20260906090651 26 220 0.0 0.0 0.00 0.00 0.00 85 1015.3
20260906090150 26 230 0.0 0.0 0.00 0.00 0.00 85 1015.4
20260906085649 26 231 0.0 0.0 0.00 0.00 0.00 85 1015.5
20260906085148 26 220 0.0 0.0 0.00 0.00 0.00 84 1015.4
20260906084643 26 222 0.0 0.0 0.00 0.00 0.00 84 1015.3
20260906084143 26 234 0.0 0.0 0.00 0.00 0.00 83 1015.3
20260906083638 26 234 0.0 0.0 0.00 0.00 0.00 82 1015.4
20260906083133 27 221 0.0 0.0 0.00 0.00 0.00 81 1015.5
20260906082628 27 219 0.0 0.0 0.00 0.00 0.00 80 1015.5
20260906082124 27 206 0.0 0.0 0.00 0.00 0.00 80 1015.5
20260906081619 27 221 0.0 0.0 0.00 0.00 0.00 80 1015.6
20260906081115 27 220 0.0 0.0 0.00 0.00 0.00 81 1015.5
20260906080611 27 220 0.0 0.0 0.00 0.00 0.00 80 1015.5
20260906080107 27 220 0.0 0.0 0.00 0.00 0.00 80 1015.7
20260906075601 27 219 1.6 1.6 0.00 0.00 0.00 79 1015.6
20260906075101 27 219 0.0 1.6 0.00 0.00 0.00 79 1015.8
20260906074557 27 229 0.0 0.0 0.00 0.00 0.00 79 1016.0
20260906074055 27 218 0.0 0.0 0.00 0.00 0.00 79 1016.0
20260906073550 27 219 1.6 1.6 0.00 0.00 0.00 78 1016.0
20260906073046 27 232 0.0 0.0 0.00 0.00 0.00 78 1015.9
20260906072541 28 219 0.0 0.0 0.00 0.00 0.00 78 1015.9
20260906072037 28 239 1.6 1.6 0.00 0.00 0.00 77 1016.2
20260906071533 28 212 3.2 4.8 0.00 0.00 0.00 77 1016.2
20260906071028 28 212 0.0 0.0 0.00 0.00 0.00 77 1016.2
20260906070524 28 212 3.2 8.0 0.00 0.00 0.00 77 1016.3
20260906070014 28 216 0.0 0.0 0.00 0.00 0.00 78 1016.5
20260906065513 28 215 0.0 0.0 0.00 0.00 0.00 77 1016.4
20260906065009 28 217 0.0 0.0 0.00 0.00 0.00 77 1016.5
20260906064505 28 197 0.0 0.0 0.00 0.00 0.00 77 1016.4
20260906064000 28 205 1.6 1.6 0.00 0.00 0.00 77 1016.2
20260906063455 28 206 1.6 1.6 0.00 0.00 0.00 76 1016.3
20260906062955 28 217 0.0 0.0 0.00 0.00 0.00 77 1016.3
20260906062450 28 219 0.0 0.0 0.00 0.00 0.00 76 1016.6
20260906061945 28 219 1.6 1.6 0.00 0.00 0.00 75 1016.5
20260906061436 28 203 1.6 3.2 0.00 0.00 0.00 75 1016.6
20260906060935 28 215 0.0 0.0 0.00 0.00 0.00 75 1016.7
20260906060433 28 207 1.6 3.2 0.00 0.00 0.00 75 1016.7
20260906055929 28 215 1.6 1.6 0.00 0.00 0.00 74 1016.8
20260906055425 28 215 3.2 3.2 0.00 0.00 0.00 74 1016.5
20260906054920 28 207 3.2 3.2 0.00 0.00 0.00 74 1016.4
20260906054414 28 207 1.6 3.2 0.00 0.00 0.00 74 1016.4
20260906053911 28 209 0.0 0.0 0.00 0.00 0.00 74 1016.3
20260906053406 28 206 0.0 0.0 0.00 0.00 0.00 73 1016.3
20260906052902 29 205 0.0 0.0 0.00 0.00 0.00 73 1016.5
20260906052358 29 205 3.2 4.8 0.00 0.00 0.00 72 1016.5
20260906051855 28 170 4.8 4.8 0.00 0.00 0.00 73 1016.3
20260906051354 29 203 1.6 1.6 0.00 0.00 0.00 73 1016.6
20260906050850 29 205 0.0 0.0 0.00 0.00 0.00 73 1016.5
20260906050345 29 160 3.2 3.2 0.00 0.00 0.00 72 1016.6
20260906045844 29 192 6.4 8.0 0.00 0.00 0.00 72 1016.6
20260906045338 30 164 4.8 4.8 0.00 0.00 0.00 72 1016.6
20260906044835 30 205 1.6 1.6 0.00 0.00 0.00 71 1016.6
20260906044334 30 208 3.2 3.2 0.00 0.00 0.00 71 1016.4
20260906043830 30 217 3.2 3.2 0.00 0.00 0.00 71 1016.4
20260906043326 30 173 6.4 8.0 0.00 0.00 0.00 71 1017.0
20260906042827 30 204 3.2 3.2 0.00 0.00 0.00 70 1016.5
20260906042325 30 198 11.3 14.5 0.00 0.00 0.00 70 1016.4
20260906041821 30 210 4.8 8.0 0.00 0.00 0.00 69 1016.3
20260906041317 30 205 1.6 3.2 0.00 0.00 0.00 69 1016.3
20260906040811 30 146 8.0 11.3 0.00 0.00 0.00 68 1016.4
20260906040307 30 189 4.8 9.7 0.00 0.00 0.00 68 1016.3
20260906035802 30 111 8.0 16.1 0.00 0.00 0.00 67 1016.4
20260906035257 30 182 8.0 9.7 0.00 0.00 0.00 67 1016.3
20260906034757 30 199 9.7 16.1 0.00 0.00 0.00 66 1016.4
20260906034252 31 233 8.0 9.7 0.00 0.00 0.00 66 1016.3
20260906033748 31 179 8.0 9.7 0.00 0.00 0.00 65 1016.1
20260906033247 31 146 4.8 8.0 0.00 0.00 0.00 64 1016.2
20260906032744 31 136 4.8 9.7 0.00 0.00 0.00 63 1016.1
20260906032244 31 194 8.0 11.3 0.00 0.00 0.00 62 1016.2
20260906031739 31 215 8.0 14.5 0.00 0.00 0.00 62 1016.0
20260906031235 31 174 12.9 22.5 0.00 0.00 0.00 61 1016.0
20260906030735 31 135 6.4 8.0 0.00 0.00 0.00 61 1015.8
20260906030230 31 129 11.3 16.1 0.00 0.00 0.00 61 1015.6
20260906025729 31 214 0.0 0.0 0.00 0.00 0.00 61 1015.7
20260906025224 31 238 0.0 0.0 0.00 0.00 0.00 61 1015.3
20260906024723 31 170 4.8 4.8 0.00 0.00 0.00 60 1015.3
20260906024222 31 207 6.4 9.7 0.00 0.00 0.00 60 1015.2
20260906023718 31 225 4.8 4.8 0.00 0.00 0.00 60 1015.1
20260906023213 31 172 1.6 3.2 0.00 0.00 0.00 60 1014.9
20260906022708 32 130 4.8 8.0 0.00 0.00 0.00 59 1014.7
20260906022204 32 92 6.4 8.0 0.00 0.00 0.00 59 1014.9
20260906021659 32 111 6.4 9.7 0.00 0.00 0.00 58 1014.6
20260906021157 32 216 3.2 4.8 0.00 0.00 0.00 58 1014.6
20260906020653 32 213 4.8 8.0 0.00 0.00 0.00 57 1014.4
20260906020147 32 193 3.2 4.8 0.00 0.00 0.00 57 1014.4
20260906015642 32 176 3.2 3.2 0.00 0.00 0.00 56 1014.5
20260906015140 32 169 4.8 4.8 0.00 0.00 0.00 56 1014.3
20260906014635 32 196 3.2 4.8 0.00 0.00 0.00 55 1014.3
20260906014131 32 172 8.0 9.7 0.00 0.00 0.00 55 1014.2
20260906013626 33 201 4.8 4.8 0.00 0.00 0.00 54 1014.3
20260906013122 33 152 8.0 14.5 0.00 0.00 0.00 54 1014.0
20260906012616 33 150 11.3 12.9 0.00 0.00 0.00 53 1013.9
20260906012116 33 155 6.4 8.0 0.00 0.00 0.00 52 1013.9
20260906011612 33 153 8.0 11.3 0.00 0.00 0.00 50 1013.8
20260906011107 34 196 3.2 3.2 0.00 0.00 0.00 49 1013.6
20260906010602 34 197 6.4 9.7 0.00 0.00 0.00 48 1013.9
20260906010058 34 167 8.0 11.3 0.00 0.00 0.00 47 1013.8
20260906005557 34 193 3.2 4.8 0.00 0.00 0.00 47 1013.6
20260906005057 34 202 3.2 4.8 0.00 0.00 0.00 46 1013.9
20260906004556 34 150 4.8 4.8 0.00 0.00 0.00 46 1013.8
20260906004051 35 205 1.6 1.6 0.00 0.00 0.00 46 1014.0
20260906003546 35 199 4.8 4.8 0.00 0.00 0.00 45 1013.9
20260906003043 35 203 3.2 3.2 0.00 0.00 0.00 45 1013.9
20260906002543 35 155 4.8 4.8 0.00 0.00 0.00 45 1013.8
20260906002037 35 190 6.4 9.7 0.00 0.00 0.00 45 1013.7
20260906001533 35 261 1.6 1.6 0.00 0.00 0.00 44 1013.6
20260906001027 35 158 1.6 3.2 0.00 0.00 0.00 44 1013.5
20260906000523 35 169 4.8 4.8 0.00 0.00 0.00 42 1013.6
20260906000019 35 207 1.6 3.2 0.00 0.00 0.00 42 1013.7
20260905235518 35 229 1.6 1.6 0.00 0.00 0.00 43 1013.7
20260905235013 35 213 1.6 3.2 0.00 0.00 0.00 43 1013.6
20260905234509 35 206 3.2 3.2 0.00 0.00 0.00 42 1013.6
20260905234009 35 204 4.8 8.0 0.00 0.00 0.00 42 1013.5
20260905233504 35 208 0.0 0.0 0.00 0.00 0.00 42 1013.6
20260905233003 36 229 4.8 4.8 0.00 0.00 0.00 41 1013.5
20260905232459 36 159 4.8 4.8 0.00 0.00 0.00 40 1013.5
20260905231954 36 206 0.0 0.0 0.00 0.00 0.00 40 1013.8
20260905231450 37 201 3.2 3.2 0.00 0.00 0.00 39 1013.8
20260905230946 37 208 1.6 3.2 0.00 0.00 0.00 37 1013.8
20260905230444 36 228 1.6 1.6 0.00 0.00 0.00 40 1013.6
20260905225943 36 153 6.4 9.7 0.00 0.00 0.00 39 1013.7
20260905225438 36 195 3.2 4.8 0.00 0.00 0.00 39 1013.6
20260905224933 36 227 0.0 1.6 0.00 0.00 0.00 40 1013.5
20260905224429 35 217 1.6 1.6 0.00 0.00 0.00 41 1013.5
20260905223922 36 247 1.6 3.2 0.00 0.00 0.00 41 1013.7
20260905223421 35 224 1.6 3.2 0.00 0.00 0.00 42 1013.5
20260905222921 35 197 1.6 1.6 0.00 0.00 0.00 43 1013.6
20260905222420 36 222 0.0 0.0 0.00 0.00 0.00 41 1013.8
20260905221916 36 214 1.6 1.6 0.00 0.00 0.00 41 1013.7
20260905221413 37 188 4.8 8.0 0.00 0.00 0.00 39 1013.8
20260905220909 37 230 0.0 0.0 0.00 0.00 0.00 39 1013.8
20260905220404 37 216 1.6 3.2 0.00 0.00 0.00 41 1013.8
20260905215903 36 189 3.2 3.2 0.00 0.00 0.00 40 1013.9
20260905215359 36 162 6.4 8.0 0.00 0.00 0.00 39 1013.9
20260905214855 36 156 6.4 9.7 0.00 0.00 0.00 40 1013.8
20260905214350 36 221 3.2 3.2 0.00 0.00 0.00 40 1014.0
20260905213845 36 204 1.6 1.6 0.00 0.00 0.00 41 1013.9
20260905213342 36 217 0.0 1.6 0.00 0.00 0.00 41 1013.9
20260905212841 35 235 1.6 1.6 0.00 0.00 0.00 44 1013.9
20260905212336 35 165 4.8 8.0 0.00 0.00 0.00 43 1013.9
20260905211836 36 193 3.2 3.2 0.00 0.00 0.00 42 1013.9
20260905211331 37 289 3.2 3.2 0.00 0.00 0.00 41 1014.1
20260905210827 36 192 4.8 4.8 0.00 0.00 0.00 41 1014.1
20260905210322 36 191 0.0 1.6 0.00 0.00 0.00 42 1014.2
20260905205821 35 199 4.8 4.8 0.00 0.00 0.00 43 1014.4
20260905205316 35 197 1.6 1.6 0.00 0.00 0.00 44 1014.1
20260905204815 36 176 3.2 4.8 0.00 0.00 0.00 42 1014.3
20260905204311 36 210 8.0 12.9 0.00 0.00 0.00 41 1014.5
20260905203810 36 147 3.2 3.2 0.00 0.00 0.00 41 1014.6
20260905203306 36 184 8.0 11.3 0.00 0.00 0.00 42 1014.7
20260905202801 35 222 0.0 0.0 0.00 0.00 0.00 43 1014.9
20260905202256 35 172 6.4 8.0 0.00 0.00 0.00 43 1014.7
20260905201751 35 210 0.0 0.0 0.00 0.00 0.00 44 1015.0
20260905201246 36 206 3.2 4.8 0.00 0.00 0.00 42 1014.8
20260905200741 37 257 1.6 1.6 0.00 0.00 0.00 45 1014.9
20260905200237 36 217 0.0 1.6 0.00 0.00 0.00 42 1015.3
20260905195735 35 185 0.0 0.0 0.00 0.00 0.00 42 1015.3
20260905195230 36 201 3.2 3.2 0.00 0.00 0.00 41 1015.3
20260905194726 35 281 0.0 1.6 0.00 0.00 0.00 45 1015.4
20260905194225 35 286 4.8 4.8 0.00 0.00 0.00 47 1015.7
20260905193719 36 162 3.2 3.2 0.00 0.00 0.00 43 1015.8
20260905193214 36 213 8.0 9.7 0.00 0.00 0.00 43 1015.6
20260905192710 36 194 6.4 9.7 0.00 0.00 0.00 43 1015.7
20260905192206 36 255 4.8 4.8 0.00 0.00 0.00 42 1015.7
20260905191706 37 195 0.0 1.6 0.00 0.00 0.00 44 1015.9
20260905191204 36 183 6.4 9.7 0.00 0.00 0.00 43 1015.9
20260905190703 36 223 0.0 0.0 0.00 0.00 0.00 45 1016.1
20260905190201 36 230 0.0 0.0 0.00 0.00 0.00 45 1016.1
20260905185701 35 265 0.0 0.0 0.00 0.00 0.00 48 1016.1
20260905185155 36 196 6.4 8.0 0.00 0.00 0.00 45 1016.3
20260905184655 35 112 9.7 11.3 0.00 0.00 0.00 46 1016.3
20260905184154 35 203 1.6 1.6 0.00 0.00 0.00 45 1016.4
20260905183648 36 164 4.8 4.8 0.00 0.00 0.00 46 1016.5
20260905183143 35 247 0.0 1.6 0.00 0.00 0.00 50 1016.7
20260905182643 34 235 0.0 0.0 0.00 0.00 0.00 51 1016.7
20260905182143 35 159 1.6 3.2 0.00 0.00 0.00 47 1016.8
20260905181638 35 93 3.2 4.8 0.00 0.00 0.00 46 1017.1
20260905181137 35 185 3.2 4.8 0.00 0.00 0.00 48 1017.1
20260905180632 35 155 6.4 9.7 0.00 0.00 0.00 48 1017.3
20260905180127 34 203 1.6 4.8 0.00 0.00 0.00 50 1017.4
20260905175626 35 315 4.8 8.0 0.00 0.00 0.00 50 1017.5
20260905175122 35 225 0.0 0.0 0.00 0.00 0.00 53 1017.4
20260905174617 34 123 4.8 4.8 0.00 0.00 0.00 51 1017.6
20260905174113 33 227 3.2 3.2 0.00 0.00 0.00 54 1017.6
20260905173609 33 212 1.6 1.6 0.00 0.00 0.00 53 1017.7
20260905173104 35 170 3.2 3.2 0.00 0.00 0.00 51 1018.1
20260905172603 35 166 4.8 4.8 0.00 0.00 0.00 51 1017.9
20260905172058 35 133 8.0 9.7 0.00 0.00 0.00 52 1017.8
20260905171554 35 224 3.2 8.0 0.00 0.00 0.00 51 1018.0
20260905171050 34 159 6.4 8.0 0.00 0.00 0.00 51 1017.7
20260905170547 34 199 4.8 8.0 0.00 0.00 0.00 51 1018.2
20260905170042 33 208 0.0 1.6 0.00 0.00 0.00 56 1018.0
20260905165536 33 226 0.0 0.0 0.00 0.00 0.00 57 1018.1
20260905165032 34 176 3.2 4.8 0.00 0.00 0.00 57 1018.3
20260905164526 33 238 4.8 9.7 0.00 0.00 0.00 57 1018.2
20260905164021 33 124 8.0 9.7 0.00 0.00 0.00 56 1018.1
20260905163517 33 218 1.6 1.6 0.00 0.00 0.00 58 1018.3
20260905163013 32 233 0.0 0.0 0.00 0.00 0.00 65 1018.0
20260905162508 32 173 1.6 4.8 0.00 0.00 0.00 65 1018.2
20260905162003 32 195 0.0 0.0 0.00 0.00 0.00 67 1018.4
20260905161503 32 211 0.0 1.6 0.00 0.00 0.00 67 1017.9
20260905161000 32 235 0.0 0.0 0.00 0.00 0.00 67 1018.1
20260905160454 33 213 3.2 4.8 0.00 0.00 0.00 65 1018.2
20260905155954 32 209 1.6 1.6 0.00 0.00 0.00 65 1018.4
20260905155449 32 199 1.6 1.6 0.00 0.00 0.00 67 1018.4
20260905154947 31 199 4.8 4.8 0.00 0.00 0.00 68 1018.2
20260905154443 31 178 6.4 8.0 0.00 0.00 0.00 70 1018.3
20260905153938 31 206 1.6 1.6 0.00 0.00 0.00 71 1018.3
20260905153434 31 270 0.0 0.0 0.00 0.00 0.00 71 1018.2
20260905152933 31 237 0.0 1.6 0.00 0.00 0.00 72 1018.2
20260905152433 31 255 0.0 1.6 0.00 0.00 0.00 72 1018.4
20260905151928 31 213 3.2 3.2 0.00 0.00 0.00 71 1018.4
20260905151424 31 256 0.0 0.0 0.00 0.00 0.00 74 1018.3
20260905150919 31 216 0.0 0.0 0.00 0.00 0.00 73 1018.3
20260905150419 31 197 1.6 3.2 0.00 0.00 0.00 74 1018.4
20260905145915 30 175 0.0 0.0 0.00 0.00 0.00 76 1018.3
20260905145410 30 210 1.6 3.2 0.00 0.00 0.00 76 1018.3
20260905144909 30 207 4.8 4.8 0.00 0.00 0.00 78 1018.2
20260905144405 30 127 3.2 4.8 0.00 0.00 0.00 75 1018.2
20260905143904 30 208 0.0 1.6 0.00 0.00 0.00 77 1018.3
20260905143358 30 206 1.6 1.6 0.00 0.00 0.00 81 1018.2
20260905142857 30 235 0.0 0.0 0.00 0.00 0.00 82 1018.1
20260905142356 30 209 0.0 0.0 0.00 0.00 0.00 81 1018.3
20260905141852 28 208 4.8 4.8 0.00 0.00 0.00 83 1018.3
20260905141347 28 207 0.0 0.0 0.00 0.00 0.00 84 1018.2
20260905140844 28 184 3.2 3.2 0.00 0.00 0.00 85 1018.2
20260905140343 28 205 3.2 3.2 0.00 0.00 0.00 86 1017.9
20260905135842 28 203 3.2 3.2 0.00 0.00 0.00 87 1018.2
20260905135338 27 207 3.2 3.2 0.00 0.00 0.00 90 1017.9
20260905134833 27 170 3.2 4.8 0.00 0.00 0.00 92 1018.0
20260905134326 26 203 1.6 1.6 0.00 0.00 0.00 94 1018.0
20260905133821 26 196 4.8 4.8 0.00 0.00 0.00 94 1018.0
20260905133316 26 201 4.8 8.0 0.00 0.00 0.00 92 1017.9
20260905132815 26 203 4.8 4.8 0.00 0.00 0.00 94 1017.8
20260905132311 26 207 1.6 3.2 0.00 0.00 0.00 95 1017.8
20260905131811 26 203 1.6 1.6 0.00 0.00 0.00 95 1017.7
20260905131306 25 197 3.2 4.8 0.00 0.00 0.00 96 1017.9
20260905130801 25 150 4.8 4.8 0.00 0.00 0.00 98 1017.7
20260905130300 25 188 3.2 3.2 0.00 0.00 0.00 99 1017.5
20260905125755 24 219 1.6 3.2 0.00 0.00 0.00 99 1017.4
20260905125250 24 205 0.0 0.0 0.00 0.00 0.00 99 1017.5
20260905124747 23 223 0.0 0.0 0.00 0.00 0.00 99 1017.4
20260905124243 23 222 0.0 0.0 0.00 0.00 0.00 99 1017.4
20260905123737 23 221 0.0 0.0 0.00 0.00 0.00 99 1017.3
20260905123234 23 222 0.0 0.0 0.00 0.00 0.00 99 1017.6
20260905122729 23 222 0.0 0.0 0.00 0.00 0.00 99 1017.6
20260905122228 23 230 0.0 0.0 0.00 0.00 0.00 99 1017.1
20260905121724 23 230 0.0 0.0 0.00 0.00 0.00 99 1017.3
20260905121220 23 230 0.0 0.0 0.00 0.00 0.00 99 1017.1
20260905120719 23 230 0.0 0.0 0.00 0.00 0.00 99 1017.0
20260905120214 23 230 0.0 0.0 0.00 0.00 0.00 99 1017.3
20260905115714 23 230 0.0 0.0 0.00 0.00 0.00 99 1017.1
20260905115208 23 230 0.0 0.0 0.00 0.00 0.00 99 1017.2
20260905114703 23 230 0.0 0.0 0.00 0.00 0.00 99 1017.1
20260905114201 23 230 0.0 0.0 0.00 0.00 0.00 99 1017.0